Location: Condor
(52.3263°N, 114.5541°W)
Time: 10:13:00
(UTC+00:00)

SO-50 - Pass Details

Date: 09 December 2023
Orbit: 608 x 660 km, 64.6° (Epoch: 04 March)

Event Time Altitude Azimuth Distance (km) Brightness Sun altitude
Exits shadow 14:32:15 - 319° (NW) 2,091 ? -9.0°
Reaches altitude 10° 14:32:26 10° 321° (NW) 2,044 ? -9.0°
Maximum altitude 14:35:38 18° 5° (N) 1,562 ? -8.6°
Drops below altitude 10° 14:38:48 10° 49° (NE) 2,018 ? -8.1°
Sets 14:41:44 0° 69° (ENE) 2,913 ? -7.7°
